Wind_Speed
35 34 34 34 35 36 36 35 34 34 34 32 27 23 20 20 22 22 21 23 24 23 23 23 22 21 19 18 19 20 21 22 22 20 18 17 17 17 17 16 15 15 15 16
35 33 33 34 34 34 35 35 34 33 33 31 27 23 19 19 21 23 23 25 25 24 23 23 23 22 21 20 20 21 21 22 22 21 20 19 19 19 19 18 18 18 19 20
33 33 35 34 33 33 32 31 31 31 30 30 27 23 20 20 23 25 25 25 25 25 24 25 25 23 22 21 21 21 22 22 21 21 21 21 21 21 21 20 21 21 22 23
28 30 32 33 32 30 30 28 28 26 27 26 26 24 21 23 25 25 24 25 26 26 26 27 27 23 22 22 22 22 21 21 21 22 23 24 24 23 22 22 22 22 22 24
24 25 26 26 27 28 27 27 27 26 26 25 25 26 23 25 26 24 24 25 26 27 27 28 27 24 23 23 23 22 21 21 21 22 24 24 23 22 22 23 23 23 23 23
23 23 22 20 22 24 25 25 26 26 25 25 23 26 25 24 25 24 24 25 26 27 28 29 27 26 25 24 24 24 23 22 22 22 21 21 20 20 21 22 24 24 23 22
25 25 23 21 21 22 22 23 24 25 25 24 23 24 26 24 24 25 25 26 26 27 28 28 27 27 27 27 26 25 24 23 21 20 19 19 18 18 19 20 21 22 20 20
26 25 24 23 23 23 23 24 25 25 24 24 24 25 26 25 24 25 26 26 27 28 28 28 27 27 27 27 26 25 24 22 20 18 17 17 16 16 16 17 18 19 18 17
29 28 28 28 27 26 25 25 25 26 26 26 26 26 25 25 25 26 27 28 29 29 28 27 26 26 26 26 25 23 21 20 18 16 15 15 15 15 15 15 16 16 16 16
30 30 29 30 29 28 27 27 27 27 28 29 28 27 26 25 26 27 28 28 27 27 27 26 26 26 26 25 23 21 19 18 17 15 14 13 13 14 15 16 16 17 17 17
26 29 28 30 32 31 28 28 28 28 29 29 29 26 24 24 24 25 26 27 27 27 27 26 25 25 25 25 23 21 19 18 17 16 15 14 14 15 16 16 17 18 18 19
27 27 27 27 31 33 33 31 30 30 29 28 28 26 23 23 24 26 28 29 28 27 25 24 23 24 25 24 23 20 18 18 18 18 17 17 17 18 18 18 19 19 20 20
28 28 28 25 27 30 32 31 31 32 30 28 27 27 26 24 25 26 28 29 28 26 24 23 23 24 25 24 23 20 18 17 17 18 19 20 21 21 20 20 20 20 20 20
28 29 27 23 23 24 27 29 30 29 28 30 30 30 29 28 28 28 28 28 27 25 25 24 24 24 25 24 22 18 17 17 17 18 20 21 22 22 22 22 21 20 20 19
26 28 28 25 21 21 22 25 28 30 32 35 34 33 30 29 30 31 31 29 26 25 25 25 25 25 25 24 21 19 19 19 20 21 21 22 22 22 23 23 22 21 21 20
25 26 27 25 23 22 22 22 26 30 32 33 33 30 27 28 30 31 31 30 27 26 26 26 27 26 25 23 22 22 23 24 25 26 25 24 23 23 23 23 23 22 22 22
24 24 24 22 20 20 18 20 22 23 24 27 28 26 25 26 28 29 29 30 30 28 28 28 26 25 23 22 23 25 27 27 27 27 27 25 24 24 24 24 24 24 24 24
23 22 23 21 19 17 16 17 16 16 18 20 21 22 21 21 21 22 24 25 26 26 25 23 22 21 21 23 25 27 27 27 27 26 25 25 24 24 25 25 25 25 25 25
22 21 21 19 16 15 15 13 13 13 12 11 11 11 9 6 6 8 10 13 14 15 15 16 17 19 21 23 24 25 26 26 25 25 25 25 24 24 24 24 25 25 24 24
21 20 18 17 15 14 14 12 11 9 7 6 5 4 3 4 3 3 3 5 6 8 10 13 15 18 20 21 22 23 23 24 25 25 25 26 25 25 25 26 27 27 27 27
23 20 18 17 16 16 15 13 11 11 10 9 8 7 6 6 5 4 3 3 5 7 10 13 15 17 18 19 21 22 23 24 24 25 25 25 26 26 27 28 28 29 29 30
23 20 18 18 19 20 19 17 15 14 14 12 10 8 7 6 5 3 2 4 6 9 11 13 15 16 18 19 21 22 23 23 23 23 22 23 23 24 26 27 28 29 30 30
23 23 21 21 22 22 22 20 17 17 16 13 11 9 7 5 3 1 2 5 8 11 13 14 15 16 18 18 19 21 21 21 20 19 19 19 20 21 23 25 27 28 28 28
26 28 26 26 26 26 25 23 21 19 17 14 11 9 7 6 4 3 4 7 10 13 13 14 15 16 16 18 19 20 19 18 16 16 16 16 17 18 20 21 22 23 24 24
28 32 31 29 28 28 26 25 23 21 18 15 12 9 8 6 5 5 5 7 11 13 13 13 14 15 16 18 19 19 17 14 14 14 14 14 15 17 17 17 15 13 15 17
27 31 33 31 30 28 27 27 26 24 19 15 12 10 8 7 6 7 7 9 11 12 13 13 14 15 17 18 18 17 15 13 13 13 13 14 14 15 15 16 12 6 4 8
Wind_Direction
240 242 244 247 250 254 258 262 266 271 274 275 273 269 261 259 267 275 278 277 276 276 277 279 280 283 290 298 303 307 309 307 301 297 295 294 296 298 296 295 291 280 273 266
244 245 248 250 254 257 259 263 267 268 269 270 268 259 250 254 264 272 277 278 279 279 280 280 280 283 289 296 301 305 306 303 296 290 288 288 289 290 288 287 285 280 272 270
251 252 254 256 258 260 261 263 265 265 267 269 264 250 252 261 268 274 276 276 277 279 280 282 281 284 290 295 300 303 304 302 296 290 287 287 286 283 279 275 276 276 273 269
257 258 258 258 259 260 259 260 262 264 264 262 260 251 251 265 271 274 273 271 273 278 281 283 282 285 291 294 297 299 300 298 295 291 289 287 284 279 273 270 270 273 272 266
259 258 259 259 256 254 255 255 257 258 258 257 255 257 255 264 269 271 270 267 269 274 278 280 283 287 291 293 295 295 294 292 291 289 287 285 281 275 270 267 267 271 271 265
257 259 259 256 252 249 249 249 250 252 255 254 255 261 266 266 267 267 265 264 267 271 275 280 287 290 293 295 296 294 292 289 288 287 286 284 280 275 268 265 265 268 269 263
250 253 253 250 248 246 243 244 246 249 253 256 258 260 266 267 266 268 269 268 270 274 279 286 291 294 298 299 299 295 293 289 286 285 284 282 279 273 268 266 267 269 268 261
239 236 237 237 239 243 243 244 249 253 252 255 257 259 264 267 268 271 273 275 277 280 284 289 294 300 303 303 301 296 291 286 283 283 283 280 276 272 271 271 272 271 268 261
241 232 233 232 233 237 241 246 251 256 257 258 259 262 265 268 269 271 273 276 279 282 286 291 298 304 304 305 306 300 290 284 284 286 287 283 279 275 275 276 278 276 272 265
252 244 239 239 237 237 239 242 246 251 257 259 260 263 267 268 269 272 274 276 279 283 289 295 300 302 301 302 304 302 290 284 286 290 293 291 284 278 277 278 279 280 275 268
258 253 246 245 243 242 244 246 249 255 260 263 264 264 269 275 276 276 276 277 280 286 290 295 297 298 298 301 301 297 286 281 284 289 293 295 291 286 283 281 280 279 277 272
258 257 253 247 247 248 248 251 255 259 262 263 264 265 273 276 274 273 274 276 280 285 289 291 291 295 300 304 303 297 284 278 282 287 291 292 292 290 287 284 281 278 276 274
257 259 258 251 245 244 246 249 252 255 255 257 262 268 275 275 272 270 271 272 275 280 283 285 288 294 300 304 304 299 288 280 281 286 290 290 289 288 287 286 282 278 274 271
254 256 258 259 252 244 241 245 250 255 259 262 264 267 268 272 273 271 271 270 271 273 276 280 287 295 300 302 301 298 294 289 288 291 293 291 288 286 284 282 280 275 271 269
256 253 251 255 259 251 245 249 254 260 262 265 268 271 272 269 267 267 268 268 268 272 276 281 287 294 299 299 296 295 296 297 298 299 298 294 288 283 280 278 276 273 270 269
261 256 252 252 256 257 254 250 256 261 264 267 271 274 274 267 263 263 265 264 266 272 277 282 287 293 295 295 292 293 297 301 303 302 300 296 288 281 277 275 273 272 270 270
261 260 254 249 251 258 258 251 256 266 270 271 274 277 274 269 266 263 261 262 265 270 274 279 284 289 291 291 291 294 297 300 301 300 298 294 288 281 276 274 272 270 269 269
253 257 256 251 253 263 260 259 266 275 276 276 280 283 280 276 270 264 260 260 263 268 273 277 282 286 288 290 292 295 298 300 299 298 295 291 287 281 277 276 273 270 268 267
248 252 253 251 249 252 258 267 275 277 273 272 275 279 277 280 274 260 256 257 260 267 272 277 282 286 289 291 294 297 299 300 301 300 297 294 290 284 279 276 273 272 270 270
237 243 244 241 237 236 249 260 263 256 222 211 212 211 186 144 151 184 214 240 256 271 278 282 286 290 294 297 299 300 301 302 302 301 299 296 292 287 282 278 275 273 270 268
229 232 233 229 223 226 238 240 232 209 192 186 184 179 172 158 149 163 205 255 281 289 291 292 294 298 302 304 305 306 306 306 304 301 298 295 292 289 285 281 277 273 270 266
228 231 231 225 218 217 227 224 215 204 198 195 194 193 191 186 171 176 254 301 310 310 307 304 304 306 308 310 311 312 312 311 308 304 301 298 295 292 288 284 279 274 269 265
230 227 223 217 215 217 223 222 213 207 204 203 203 203 205 209 204 217 307 320 322 318 314 311 310 312 315 317 319 320 319 315 312 309 306 304 300 298 294 288 282 275 267 260
235 229 225 217 215 215 219 219 214 211 211 209 207 208 216 230 247 280 316 324 323 320 317 316 317 320 323 325 326 325 322 320 319 317 317 315 312 309 306 299 290 276 263 255
243 232 225 221 219 216 215 216 214 212 214 213 211 216 227 239 257 279 306 320 322 322 321 321 323 325 327 328 329 329 330 331 331 330 329 328 327 326 326 323 312 285 258 247
249 237 227 222 221 219 215 217 216 215 215 215 216 224 235 250 266 282 302 318 322 323 322 322 322 325 327 329 332 336 341 343 340 337 336 337 341 345 349 353 353 339 259 231
Height
5838 5842 5844 5846 5848 5850 5851 5853 5855 5856 5855 5855 5856 5857 5857 5857 5856 5856 5856 5855 5854 5853 5852 5850 5849 5848 5846 5845 5843 5840 5838 5837 5835 5833 5832 5831 5830 5829 5829 5828 5828 5828 5829 5829
5834 5837 5838 5839 5842 5844 5845 5847 5848 5849 5848 5848 5850 5851 5852 5852 5851 5851 5850 5849 5849 5848 5847 5846 5844 5843 5841 5840 5838 5836 5834 5832 5830 5829 5828 5827 5826 5825 5825 5824 5823 5823 5824 5825
5828 5831 5831 5834 5836 5838 5839 5840 5841 5842 5842 5842 5844 5846 5846 5846 5845 5845 5845 5843 5842 5842 5841 5840 5839 5838 5836 5834 5832 5830 5828 5826 5825 5823 5822 5822 5821 5821 5820 5819 5819 5819 5819 5819
5822 5824 5826 5827 5829 5831 5833 5833 5834 5835 5835 5837 5839 5840 5842 5840 5840 5839 5839 5838 5837 5836 5835 5835 5833 5832 5830 5828 5826 5824 5822 5820 5818 5817 5816 5815 5815 5814 5814 5814 5814 5813 5813 5813
5817 5819 5820 5822 5823 5824 5826 5826 5827 5828 5829 5831 5832 5833 5837 5835 5834 5834 5833 5832 5831 5831 5830 5829 5828 5826 5824 5823 5821 5818 5816 5814 5812 5811 5809 5808 5807 5807 5807 5807 5808 5807 5807 5806
5812 5813 5815 5816 5817 5818 5818 5819 5820 5821 5823 5826 5828 5828 5829 5829 5828 5828 5827 5827 5826 5826 5825 5823 5822 5820 5819 5817 5814 5812 5809 5807 5805 5804 5802 5801 5800 5800 5800 5800 5801 5801 5800 5800
5807 5809 5809 5810 5811 5812 5813 5814 5815 5816 5817 5820 5821 5822 5823 5823 5822 5822 5822 5821 5821 5820 5819 5818 5816 5814 5812 5810 5807 5805 5802 5800 5799 5797 5796 5795 5795 5794 5794 5794 5794 5794 5794 5794
5802 5803 5803 5803 5805 5806 5807 5808 5810 5811 5812 5813 5814 5815 5817 5817 5817 5817 5817 5816 5816 5815 5814 5812 5810 5808 5806 5803 5801 5798 5796 5794 5793 5791 5790 5790 5790 5789 5789 5788 5788 5788 5788 5788
5796 5798 5797 5797 5797 5800 5801 5803 5804 5805 5805 5807 5808 5810 5811 5811 5811 5811 5811 5811 5810 5809 5808 5806 5805 5803 5800 5798 5795 5793 5791 5789 5787 5786 5785 5785 5784 5784 5784 5784 5783 5783 5783 5784
5791 5793 5794 5792 5793 5794 5796 5797 5798 5799 5799 5800 5802 5804 5805 5805 5805 5805 5805 5804 5803 5802 5801 5800 5799 5797 5795 5793 5790 5788 5786 5784 5783 5782 5781 5780 5780 5780 5779 5779 5779 5778 5779 5779
5785 5786 5788 5788 5789 5790 5791 5792 5792 5793 5794 5795 5796 5801 5800 5800 5799 5799 5798 5797 5797 5796 5796 5794 5793 5791 5789 5787 5785 5783 5781 5780 5779 5778 5777 5776 5775 5775 5775 5774 5774 5774 5773 5774
5779 5780 5781 5782 5783 5784 5786 5787 5788 5789 5788 5789 5790 5796 5794 5795 5793 5793 5792 5791 5791 5791 5790 5789 5787 5785 5783 5781 5779 5777 5775 5775 5774 5773 5772 5771 5770 5770 5770 5769 5769 5769 5768 5768
5772 5773 5773 5775 5778 5778 5779 5780 5781 5781 5782 5782 5784 5789 5787 5788 5787 5786 5786 5785 5785 5785 5784 5783 5781 5779 5777 5775 5773 5771 5770 5769 5768 5768 5767 5766 5765 5764 5764 5763 5763 5763 5763 5763
5764 5765 5767 5768 5768 5769 5771 5773 5774 5775 5775 5775 5777 5779 5780 5780 5780 5780 5779 5778 5778 5778 5778 5777 5775 5773 5771 5769 5768 5766 5765 5764 5763 5762 5761 5760 5759 5758 5757 5757 5757 5757 5756 5757
5757 5758 5759 5761 5762 5763 5765 5767 5768 5769 5768 5768 5769 5770 5773 5772 5771 5771 5771 5771 5771 5771 5771 5770 5769 5768 5766 5764 5762 5761 5760 5758 5757 5756 5755 5753 5752 5751 5750 5750 5750 5750 5750 5750
5750 5751 5753 5756 5757 5758 5760 5762 5762 5761 5761 5761 5762 5762 5763 5761 5761 5761 5762 5763 5764 5764 5764 5763 5762 5762 5760 5758 5756 5755 5754 5752 5750 5749 5747 5746 5745 5744 5743 5743 5743 5744 5744 5744
5743 5745 5747 5750 5751 5752 5754 5755 5755 5756 5756 5754 5753 5753 5752 5751 5751 5751 5753 5754 5756 5757 5757 5757 5756 5756 5754 5752 5751 5749 5747 5745 5743 5741 5739 5738 5737 5736 5736 5736 5736 5737 5737 5738
5737 5738 5740 5743 5746 5747 5749 5749 5750 5750 5749 5747 5745 5744 5743 5742 5741 5742 5744 5747 5748 5750 5751 5751 5751 5750 5749 5747 5745 5742 5740 5738 5736 5734 5732 5730 5729 5729 5728 5728 5728 5729 5729 5730
5730 5732 5734 5737 5740 5741 5743 5744 5744 5744 5743 5742 5741 5739 5737 5736 5736 5737 5739 5741 5743 5745 5746 5746 5746 5745 5743 5741 5738 5736 5734 5731 5729 5726 5724 5722 5721 5721 5721 5721 5721 5721 5722 5722
5724 5726 5729 5731 5734 5736 5738 5739 5739 5740 5740 5739 5738 5737 5735 5734 5735 5737 5738 5739 5740 5741 5742 5742 5741 5739 5737 5735 5733 5730 5728 5725 5723 5720 5717 5715 5714 5713 5712 5712 5712 5713 5713 5714
5717 5720 5723 5725 5728 5730 5733 5734 5736 5738 5738 5736 5736 5735 5735 5734 5734 5736 5737 5738 5738 5738 5738 5737 5735 5733 5731 5729 5727 5725 5722 5719 5716 5714 5711 5708 5706 5705 5704 5703 5703 5703 5704 5705
5712 5715 5717 5720 5723 5727 5727 5729 5732 5733 5733 5734 5734 5734 5734 5734 5733 5733 5734 5735 5735 5734 5733 5732 5730 5729 5727 5724 5722 5719 5716 5713 5710 5707 5704 5702 5699 5697 5695 5694 5693 5693 5693 5695
5705 5707 5709 5713 5718 5720 5722 5725 5728 5729 5731 5732 5733 5733 5734 5734 5733 5732 5732 5732 5732 5731 5729 5728 5726 5725 5723 5720 5717 5714 5711 5708 5705 5702 5699 5696 5693 5691 5688 5685 5683 5682 5683 5684
5697 5697 5700 5705 5710 5714 5717 5721 5724 5727 5729 5730 5731 5732 5733 5733 5732 5731 5730 5729 5729 5728 5726 5725 5723 5721 5719 5716 5713 5710 5707 5704 5700 5697 5694 5691 5688 5685 5681 5677 5674 5672 5672 5674
5687 5689 5693 5698 5703 5708 5713 5717 5721 5724 5727 5728 5729 5730 5731 5732 5731 5730 5728 5727 5726 5725 5723 5722 5720 5718 5716 5713 5710 5707 5703 5700 5697 5694 5691 5688 5685 5681 5677 5671 5666 5663 5664 5667
5680 5683 5688 5693 5697 5703 5708 5712 5716 5720 5724 5726 5727 5729 5730 5730 5730 5729 5727 5726 5724 5723 5721 5720 5718 5716 5714 5711 5708 5704 5701 5698 5695 5693 5690 5687 5684 5680 5675 5670 5665 5662 5661 5663